Terug naar catalogus

IMPUL'S-1

ActiefAmateurradioSSO
NORAD 57173·PAYLOAD·🇷🇺 Russia
Deze satellietnaam is nog niet bevestigd door officiële bronnen.

Gelanceerd Jun 27, 2023 vanaf Vostochny Cosmodrome

Loading…

Volgende Passages (komende 24 uur)

TLE

VersSource: Space-Track

Epoch: Sep 14, 2026, 14:46 UTC

1 57173U 23091H   26257.61566991  .00009073  00000-0  31159-3 0  9994
2 57173  97.4955 321.5986 0010201 149.9482 210.2346 15.30311896177975

Volg IMPUL'S-1 in realtime met AllMySat

Download on the App Store